This demonstration page uses our WeatherBlox Daily Observations layout. Learn more.

Left ArrowRight Arrow

39.51506, -84.39828

Hourly Observations for January 30, 2021

Temp ( °F °C ) Dew Point ( °F °C ) Humidity (%) Winds ( mph kmh ) Pressure ( in mb ) Visibility ( mi km ) Precip ( " mm )
12:15 am 00:15 Clear 20 -6.9 17 -8.3 90 90 N N/A 30.40 1030 10 16 N/A
12:35 am 00:35 Clear 19 -7.3 17 -8.6 91 91 N N/A 30.41 1030 10 16 N/A
12:55 am 00:55 Clear 20 -6.9 17 -8.1 91 91 N N/A 30.41 1030 10 16 N/A
1:15 am 01:15 Partly Cloudy 20 -6.9 18 -8 92 92 N N/A 30.40 1030 10 16 N/A
1:35 am 01:35 Mostly Cloudy 20 -6.9 18 -8 92 92 N N/A 30.40 1030 10 16 N/A
1:55 am 01:55 Clear 19 -7.2 17 -8.3 92 92 N N/A 30.40 1029 10 16 N/A
2:15 am 02:15 Clear 18 -7.7 16 -8.8 92 92 N 3 6 30.40 1029 10 16 N/A
2:35 am 02:35 Clear 19 -7.5 17 -8.5 93 93 N N/A 30.40 1029 10 16 N/A
2:55 am 02:55 Clear 18 -7.8 16 -8.7 93 93 N N/A 30.39 1029 10 16 N/A
3:15 am 03:15 Clear 18 -7.7 17 -8.5 94 94 N N/A 30.39 1029 10 16 N/A
3:35 am 03:35 Clear 17 -8.3 16 -9.1 94 94 N 3 6 30.38 1029 10 16 N/A
3:55 am 03:55 Clear 17 -8.1 16 -8.9 94 94 N 3 6 30.38 1029 10 16 N/A
4:15 am 04:15 Clear 17 -8.3 16 -9.1 94 94 N N/A 30.37 1028 10 16 N/A
4:35 am 04:35 Clear 17 -8.5 15 -9.4 93 93 N 3 6 30.37 1028 10 16 N/A
4:55 am 04:55 Clear 17 -8.3 16 -9.1 94 94 N N/A 30.36 1028 10 16 N/A
5:15 am 05:15 Clear 18 -7.9 16 -8.9 93 93 N 3 6 30.37 1028 10 16 N/A
5:35 am 05:35 Clear 19 -7.4 17 -8.6 91 91 N 3 6 30.37 1028 10 16 N/A
5:55 am 05:55 Clear 20 -6.8 17 -8.2 90 90 N 3 6 30.38 1029 10 16 N/A
6:15 am 06:15 Clear 20 -6.9 17 -8.3 90 90 NNE 5 7 30.37 1029 10 16 N/A
6:35 am 06:35 Clear 19 -7.3 17 -8.5 91 91 NNE 5 7 30.37 1028 10 16 N/A
6:55 am 06:55 Clear 20 -6.5 17 -8.2 88 88 N 3 6 30.36 1028 10 16 N/A
7:15 am 07:15 Clear 20 -6.7 17 -8.3 89 89 NNE 3 6 30.37 1029 10 16 N/A
7:35 am 07:35 Clear 20 -6.7 18 -7.9 91 91 NNE 5 7 30.36 1028 10 16 N/A
7:55 am 07:55 Sunny 22 -5.5 19 -7.2 88 88 NNE 5 7 30.35 1028 10 16 N/A
8:15 am 08:15 Partly Cloudy 23 -4.9 19 -7.1 85 85 NNE 3 6 30.35 1028 10 16 N/A
8:35 am 08:35 Partly Cloudy 24 -4.5 20 -6.9 84 84 N N/A 30.35 1028 10 16 N/A
8:55 am 08:55 Cloudy 25 -4 20 -6.6 82 82 ENE 3 6 30.34 1027 10 16 N/A
9:15 am 09:15 Mostly Cloudy 26 -3.3 19 -7 76 76 E 3 6 30.33 1027 10 16 N/A
9:35 am 09:35 Sunny 28 -2.5 19 -7.4 69 69 ESE 5 7 30.32 1027 10 16 N/A
9:55 am 09:55 Sunny 28 -2.1 18 -7.7 66 66 ESE 6 9 30.32 1027 10 16 N/A
10:15 am 10:15 Sunny 29 -1.8 19 -7.3 66 66 ESE 10 17 30.31 1026 10 16 N/A
10:35 am 10:35 Partly Cloudy 29 -1.5 18 -7.7 63 63 ESE 10 17 30.29 1026 10 16 N/A
10:55 am 10:55 Cloudy 30 -1 18 -7.6 61 61 ESE 10 17 30.29 1026 10 16 N/A
11:15 am 11:15 Mostly Cloudy 31 -0.7 17 -8.3 57 57 SE 9 15 30.30 1026 10 16 N/A
11:35 am 11:35 Cloudy 31 -0.3 17 -8.2 56 56 SE 10 17 30.29 1026 10 16 N/A
11:55 am 11:55 Cloudy 32 -0.1 17 -8.4 54 54 SE 10 17 30.29 1026 10 16 N/A
12:15 pm 12:15 Cloudy 32 0.1 17 -8.5 53 53 ESE 9 15 30.29 1026 10 16 N/A
12:35 pm 12:35 Cloudy 32 0.2 17 -8.3 53 53 ESE 6 9 30.27 1025 10 16 N/A
12:55 pm 12:55 Cloudy 33 0.3 17 -8.4 52 52 ESE 9 15 30.27 1025 10 16 N/A
1:15 pm 13:15 Cloudy 33 0.8 18 -8 52 52 SE 9 15 30.26 1025 10 16 N/A
1:35 pm 13:35 Mostly Cloudy 34 1.3 18 -7.6 52 52 ESE 8 13 30.24 1024 10 16 N/A
1:55 pm 13:55 Sunny 34 1.3 18 -7.8 51 51 E 13 20 30.21 1023 10 16 N/A
2:15 pm 14:15 Mostly Cloudy 35 1.5 18 -7.9 50 50 ESE 7 11 30.21 1023 10 16 N/A
2:35 pm 14:35 Cloudy 35 1.8 18 -7.6 50 50 ESE 12 19 30.19 1022 10 16 N/A
2:55 pm 14:55 Cloudy 35 1.9 18 -7.6 50 50 ESE 9 15 30.18 1022 10 16 N/A
3:15 pm 15:15 Cloudy 36 2 19 -7.5 50 50 E 13 20 30.17 1022 10 16 N/A
3:35 pm 15:35 Partly Cloudy 36 2.1 18 -7.6 49 49 ESE 10 17 30.18 1022 10 16 N/A
3:55 pm 15:55 Partly Cloudy 36 2.1 18 -7.9 48 48 SE 8 13 30.17 1022 10 16 N/A
4:15 pm 16:15 Partly Cloudy 36 2.1 18 -7.6 49 49 E 13 20 30.15 1021 10 16 N/A
4:35 pm 16:35 Cloudy 36 2 19 -7.4 50 50 E 9 15 30.15 1021 10 16 N/A
4:55 pm 16:55 Cloudy 35 1.9 20 -6.7 53 53 E 9 15 30.15 1021 10 16 N/A
5:15 pm 17:15 Cloudy 35 1.7 20 -6.7 54 54 E 6 9 30.15 1021 10 16 N/A
5:35 pm 17:35 Cloudy 35 1.7 20 -6.6 54 54 E 7 11 30.15 1021 10 16 N/A
5:55 pm 17:55 Cloudy 35 1.7 20 -6.6 54 54 ESE 7 11 30.15 1021 10 16 N/A
6:15 pm 18:15 Cloudy 35 1.7 20 -6.5 55 55 ESE 7 11 30.16 1021 10 16 N/A
6:35 pm 18:35 Cloudy 35 1.8 20 -6.6 54 54 SSE 7 11 30.16 1021 10 16 N/A
6:55 pm 18:55 Cloudy 35 1.7 20 -6.4 55 55 SE 8 13 30.15 1021 10 16 N/A
7:15 pm 19:15 Cloudy 35 1.6 20 -6.6 55 55 SE 9 15 30.14 1021 10 16 N/A
7:35 pm 19:35 Cloudy 35 1.5 21 -6.2 57 57 SE 12 19 30.14 1021 10 16 N/A
7:55 pm 19:55 Cloudy with Light Snow 34 0.9 24 -4.2 69 69 SE 12 19 30.14 1021 10 16 N/A
8:15 pm 20:15 Cloudy with Light Snow 32 -0.2 28 -2 88 88 SSE 8 13 30.15 1021 3 4 N/A
8:35 pm 20:35 Partly Cloudy with Isolated Snow Showers 31 -0.6 30 -1.1 96 96 SSE 7 11 30.14 1021 1 2 0.02 0.51
8:55 pm 20:55 Partly Cloudy with Isolated Snow Showers 31 -0.8 30 -1 99 99 E 7 11 30.11 1020 1 2 0.05 1.27
9:15 pm 21:15 Mostly Cloudy with Light Snow 31 -0.8 30 -1.1 98 98 E 8 13 30.09 1019 2 3 0.02 0.51
9:35 pm 21:35 Cloudy with Light Snow 31 -0.4 31 -0.8 97 97 E 8 13 30.08 1018 5 8 0.04 1.02
9:55 pm 21:55 Cloudy with Rain 32 undefined 31 -0.6 96 96 E 10 17 30.06 1018 10 16 0.06 1.52
10:15 pm 22:15 Cloudy with Rain 32 undefined 31 -0.4 97 97 ENE 12 19 30.03 1017 5 8 0.03 0.76
10:35 pm 22:35 Cloudy with Light Rain 32 0.2 32 -0.1 98 98 ENE 9 15 30.01 1016 10 16 0.04 1.02
10:55 pm 22:55 Cloudy with Rain 33 0.4 32 0.1 98 98 E 8 13 30.00 1016 5 8 0.05 1.27
11:15 pm 23:15 Cloudy with Light Rain 33 0.5 32 0.1 97 97 ENE 5 7 29.99 1016 7 11 0.01 0.25
11:35 pm 23:35 Mostly Cloudy with Light Rain 33 0.7 33 0.3 97 97 E 5 7 29.99 1016 7 11 0.02 0.51
11:55 pm 23:55 Cloudy with Light Rain 33 0.8 33 0.5 98 98 N N/A 29.98 1015 7 11 0.03 0.76

Powered by AerisWeather